Tracking 25995 objects as of 19-Aug-2022
HD Live streaming from Space Station
objects crossing your sky now

STARLINK-4045

Track STARLINK-4045 now!
10-day predictions
STARLINK-4045 is classified as:


NORAD ID: 53152
Int'l Code: 2022-083W
Perigee: 354.7 km
Apogee: 359.0 km
Inclination: 53.2 °
Period: 91.5 minutes
Semi major axis: 6727 km
RCS: Unknown
Launch date: July 17, 2022
Source: United States (US)
Launch site: AIR FORCE EASTERN TEST RANGE (AFETR)
aabbcc
Your satellite tracking list
Your tracking list is empty




NASA's NSSDC Master Catalog

Two Line Element Set (TLE):
1 53152U 22083W   22230.58334491 -.00030344  00000-0 -21238-3 0  9992
2 53152  53.2155 248.5130 0003173   9.5702 307.2006 15.73210785  1300
Source of the keplerian elements: AFSPC